"Pseudo-MPEC" for P10Lpcj

Created 2019 Jan 27 1:18:30 UT using Find_Orb

Click here for an explanation of pseudo-MPECs

 
 Astrometry: 
     P10Lpcj  C2019 01 11_Y7g=7PgKY.V3ZjpWYSAstrometrymsbGcTJebp$uvocm-mZ2LCBF51
     P10Lpcj  C2019 01 11c[s\wtRE?:oD5kmR_Fs2L.fsWredacted;G7Y(0Y_p1*5%S3oD'GF51
     P10Lpcj  C2019 01 11MV`G3WHJ6*5,ctOXlTeYI/`KGBLXj_a`4r.8bl'IVUKclick+gq9F51
     P10Lpcj  C2019 01 13=3:OW;4XVuF(]^jP@9,u?k=6*ogGeYherei(F*W$yl6UA\7Xt'.:F51
     P10Lpcj ^C2019 01 13.39717507 56 06.930+56 45 03.50   ~1DKI 22.10GVNEOCP568
     P10Lpcj  C2019 01 13*DVLEB_5J+sfor\cr(y'I['VyjJt^:hx!MvXSuT80$C):aUB`\EvF51
     P10Lpcj ^C2019 01 13.39812307 56 06.801+56 45 04.48   ~1DKI 22.04GVNEOCP568
     P10Lpcj ^C2019 01 13.39907607 56 06.676+56 45 05.48   ~1DKI 22.07GVNEOCP568
     P10Lpcj  C2019 01 13(/KKaLx]^+Y8CCq@'e'\.BsSMZJ[+dexplanation;+5Xg:prMc;F51

Station data:
(568) Mauna Kea  (N19.826116 W155.472200)  US/Hawaii.
(F51) Pan-STARRS 1, Haleakala  (N20.707235 W156.255910)  US/Hawaii.
   Observers N. Primak, A. Schultz, S. Watters, J. Thiel, T. Goggia. Measurer
   PS1 Science Consortium. 1.8-m Ritchey-Chrétien + CCD.

Orbital elements:  P10Lpcj
   Perihelion 2019 Aug 10.613010 +/- 231 TT = 14:42:44 (JD 2458706.113010)
Epoch 2019 Jan 13.0 TT = JDT 2458496.5   Earth MOID: 0.3963   Ma: 0.0845
M 277.28285753 +/- 60               (J2000 ecliptic)          AutoNEOCP
n   0.39461836 +/- 0.196            Peri.  158.48001 +/- 90
a   1.84084769 +/- 0.608            Node    65.20690 +/- 30
e   0.2421557 +/- 0.268             Incl.   24.08935 +/- 22
P   2.50/912.26d           H 20.2   G  0.15   U 11.7  SR
q 1.39507581 +/- 0.709    Q 2.28661956 +/- 8.35
From 9 observations 2019 Jan. 11-13 (46.6 hr); mean residual 0".17
Residuals in arcseconds: 
190111 F51  .13+  .20+    190113 F51  .06+  .25-    190113 568  .03-  .00     
190111 F51  .10+  .27+    190113 568  .01-  .03+    190113 568  .02-  .02-    
190111 F51  .23-  .47-    190113 F51  .01-  .22+    190113 F51  .01+  .03+    

Ephemerides (geocentric):
Date (UTC) HH   RA              Dec         delta   r     elong  mag " sig PA
---- -- -- --  -------------   -----------  ------ ------ -----  --- ---- ---
2019 01 27 01  07 24 55.636   +59 40 46.55  1.0025 1.8490 137.0 22.6 1983  34
2019 01 27 02  07 24 49.872   +59 41 06.52  1.0026 1.8489 137.0 22.6 1994  34
2019 01 27 03  07 24 44.110   +59 41 26.41  1.0026 1.8488 137.0 22.6 2005  34
2019 01 27 04  07 24 38.350   +59 41 46.22  1.0027 1.8486 136.9 22.6 2016  34
2019 01 27 05  07 24 32.593   +59 42 05.96  1.0027 1.8485 136.9 22.6 2027  34
2019 01 27 06  07 24 26.838   +59 42 25.63  1.0028 1.8484 136.9 22.6 2038  34
2019 01 27 07  07 24 21.085   +59 42 45.22  1.0029 1.8483 136.8 22.6 2049  34
2019 01 27 08  07 24 15.335   +59 43 04.73  1.0029 1.8481 136.8 22.6 2060  34
2019 01 27 09  07 24 09.587   +59 43 24.17  1.0030 1.8480 136.8 22.6 2072  34
2019 01 27 10  07 24 03.842   +59 43 43.54  1.0030 1.8479 136.8 22.6 2083  34
2019 01 27 11  07 23 58.099   +59 44 02.83  1.0031 1.8477 136.7 22.6 2094  34
2019 01 27 12  07 23 52.358   +59 44 22.04  1.0032 1.8476 136.7 22.6 2105  34
2019 01 27 13  07 23 46.620   +59 44 41.18  1.0032 1.8475 136.7 22.6 2117  34
2019 01 27 14  07 23 40.884   +59 45 00.24  1.0033 1.8474 136.6 22.6 2128  34
2019 01 27 15  07 23 35.151   +59 45 19.23  1.0034 1.8472 136.6 22.6 2139  34
2019 01 27 16  07 23 29.421   +59 45 38.14  1.0034 1.8471 136.6 22.6 2151  34
2019 01 27 17  07 23 23.693   +59 45 56.98  1.0035 1.8470 136.5 22.6 2162  34
2019 01 27 18  07 23 17.968   +59 46 15.75  1.0036 1.8469 136.5 22.6 2174  34
2019 01 27 19  07 23 12.245   +59 46 34.43  1.0036 1.8467 136.5 22.6 2185  34
2019 01 27 20  07 23 06.525   +59 46 53.05  1.0037 1.8466 136.5 22.6 2197  34
2019 01 27 21  07 23 00.808   +59 47 11.59  1.0038 1.8465 136.4 22.6 2208  34
2019 01 27 22  07 22 55.093   +59 47 30.05  1.0038 1.8463 136.4 22.6 2220  33
2019 01 27 23  07 22 49.381   +59 47 48.44  1.0039 1.8462 136.4 22.6 2231  33
2019 01 28 00  07 22 43.672   +59 48 06.75  1.0040 1.8461 136.3 22.6 2243  33
2019 01 28 01  07 22 37.966   +59 48 24.99  1.0040 1.8460 136.3 22.6 2255  33
2019 01 28 02  07 22 32.262   +59 48 43.15  1.0041 1.8458 136.3 22.6 2266  33
2019 01 28 03  07 22 26.561   +59 49 01.24  1.0042 1.8457 136.2 22.6 2278  33
2019 01 28 04  07 22 20.864   +59 49 19.25  1.0042 1.8456 136.2 22.6 2290  33
2019 01 28 05  07 22 15.169   +59 49 37.19  1.0043 1.8454 136.2 22.6 2302  33
2019 01 28 06  07 22 09.476   +59 49 55.06  1.0044 1.8453 136.2 22.6 2313  33
2019 01 28 07  07 22 03.787   +59 50 12.85  1.0044 1.8452 136.1 22.6 2325  33
2019 01 28 08  07 21 58.101   +59 50 30.56  1.0045 1.8451 136.1 22.6 2337  33
2019 01 28 09  07 21 52.418   +59 50 48.20  1.0046 1.8449 136.1 22.6 2349  33
2019 01 28 10  07 21 46.738   +59 51 05.77  1.0047 1.8448 136.0 22.6 2361  33
2019 01 28 11  07 21 41.060   +59 51 23.26  1.0047 1.8447 136.0 22.6 2373  33
2019 01 28 12  07 21 35.386   +59 51 40.68  1.0048 1.8446 136.0 22.6 2385  33
2019 01 28 13  07 21 29.715   +59 51 58.02  1.0049 1.8444 135.9 22.6 2397  33
2019 01 28 14  07 21 24.047   +59 52 15.29  1.0049 1.8443 135.9 22.6 2409  33
2019 01 28 15  07 21 18.382   +59 52 32.48  1.0050 1.8442 135.9 22.6 2421  33
2019 01 28 16  07 21 12.720   +59 52 49.60  1.0051 1.8440 135.9 22.6 2433  33
2019 01 28 17  07 21 07.062   +59 53 06.65  1.0052 1.8439 135.8 22.6 2445  33
2019 01 28 18  07 21 01.406   +59 53 23.62  1.0052 1.8438 135.8 22.6 2457  32
2019 01 28 19  07 20 55.754   +59 53 40.52  1.0053 1.8437 135.8 22.6 2469  32
2019 01 28 20  07 20 50.105   +59 53 57.34  1.0054 1.8435 135.7 22.6 2481  32
2019 01 28 21  07 20 44.459   +59 54 14.09  1.0054 1.8434 135.7 22.6 2493  32
2019 01 28 22  07 20 38.817   +59 54 30.76  1.0055 1.8433 135.7 22.6 2506  32
2019 01 28 23  07 20 33.177   +59 54 47.36  1.0056 1.8432 135.6 22.6 2518  32
2019 01 29 00  07 20 27.542   +59 55 03.89  1.0057 1.8430 135.6 22.6 2530  32